Find Starlink 5298

NORAD ID: 55281 Int'l Des: 2023-010 Owner: SPXS Country: US Constellation: starlink operational
LEOCIRCULAR

現在のビュー

3D地球を読み込み中...

About Starlink 5298

Starlink 5298 (NORAD 55281) is a starlink constellation satellite (v1.5) launched Jan 19, 2023 by SPXS of US. It operates in LEO, CIRCULAR orbit with a mass of 305.00 kg.

Starlink 5298について

説明を読み込み中...

次回通過

Passes for default location (London). Set your location on the main map for personalized predictions.

高度履歴

Loading altitude history...

軌道要素

1 55281U 23010N 26171.34825481 .00000206 00000-0 25072-4 0 9997
2 55281 69.9992 145.5965 0003529 266.1640 93.9115 14.98330480188157
Epoch: Jun 20, 2026 • Age: 36 hours

現在のステータス

高度 577.0 km
速度 7.57 km/s
衛星直下点 -16.34°S, 110.57°E
打ち上げ日 Jan 19, 2023
運用期間 3.4 years
タイプ internet

技術仕様

分類 Payload
質量 305.00 kg
乾燥質量 290.00 kg
総質量 305.00 kg
長さ 0.20 m
直径 2.80 m
スパン 9.00 m
形状 Box + pan
製造者 SPXS
バスタイプ Starlink
フェーズステータス In Orbit
所有者/国 SPXS/US

Most Searched